COSMOS 1275 DEB, 12749

Orbit data source: Space-Track

COSMOS 1275 DEB, 12749 is space debris in LEO originally from a launch on Thu, 04 Jun 1981 UTC launched from the Plesetsk Missile And Space Complex (PKMTR). Debris objects in space refer to the collection of defunct objects orbiting the Earth. Examples of debris include non-operational satellites, rocket bodies, and fragments generated from explosions, collisions, or faulty payload assembly.

Loading next visibility...
Identifier
12749, 1981-053CS
Orbit
LEO
Country
Flag of CISCIS
Related business
Manufacturer
Unknown
Mission
Spacecraft
Bus & Motor
Unknown
Mass
Unknown
Launch date (UTC)
1981-06-04 (45 years ago)
Launch vehicle
Unknown
Launch site
Plesetsk Missile And Space Complex (PKMTR)
Object type
Payload
Rocket body
Debris
Shape & HBR
Unknown shape, 0.2 m
Radar Cross Section
Small (<0.1 m²)

Expand to show TLE details & history
Last TLE update: 21 hours ago

TLE from 21 hours ago
0 COSMOS 1275 DEB
1 12749U 81053CS  26104.09173838  .00000309  00000-0  29723-3 0  9990
2 12749  82.8074 123.7360 0062206   1.1714  54.8132 13.76301685237214
Epoch: 2026-04-14T02:12Z
TLE epoch observation values (Epoch: 2026-04-14T02:12:06.196Z)
Latitude
55.99018°
Longitude
-100.84028°
Altitude
960.176 km
Speed
7.39 km/s
True Right ascension
08h 57m 50s
True Declination
55° 50' 06"
Sunlit
Object was in daylight at epoch
Visualization orbit readout
Latitude
Unknown
Longitude
Unknown
Altitude
Unknown
Speed
Unknown
Apparent Right ascension
Unknown
Apparent Declination
Unknown
Sunlit
N/A
Visualization observer readout
Local Sidereal Time
05:59:40
Azimuth
Unknown
Elevation
Unknown
Doppler factor
Unknown
Orbital elements
Apogee altitude
1,019.921 km
Perigee altitude
928.45 km
Semi-major axis
7,352.323 km
Eccentricity
0.00622
Inclination
82.8074°
RAAN
123.736°
Arg. of periapsis
1.1714°
True anomaly
55.39839°
Mean anomaly
54.8132°
Eccentric anomaly
55.10553°
Mean motion
3.44276 °/min
Orbital period
104.57 mins
BSTAR
0.00029723
Loading maneuver chart data...
Computing Atmospheric mass density...
Loading historical data...
Loading historical data...
Loading historical data...
Loading historical data...
Loading historical data...
Loading historical data...
Loading historical data...

Documentation

Showing up to 5 results
|